Flag for Czech Republic Weather past 2 weeks in Prague, Czech Republic

Now
75 °F

Sunny.


Feels Like: 78 °F
Forecast: 60 / 79 °F
Wind: 16 mph from Southwest

Location: Prague Ruzyne Airport

Current Time: Jun 2, 2015 at 7:35:24 PM

Latest Report: Jun 2, 2015 at 7:00 PM


Visibility: 10 mi

Pressure: 30.04 "Hg

Humidity: 44%

Dew point: 52 °F

Location of PragueLocation

Historic Weather in Prague — Graph

°F

Prague temperature yesterday

Maximum temperature yesterday: 77 °F (at 5:30 PM)
Minimum temperature yesterday: 54 °F (at 1:30 AM)
Average temperature yesterday: 64 °F

Past Weeks' High & Low Weather Summary

 TemperatureHumidityPressure
High77 °F (Jun 1, 5:30 PM)100% (May 21, 2:00 AM)30.30 "Hg (May 21, 2:00 AM)
Low39 °F (May 31, 5:30 AM)37% (May 23, 2:30 PM)29.68 "Hg (May 19, 3:30 AM)
Average56 °F70%30.01 "Hg
* Reported May 18 6:00 PM — Jun 2 6:30 PM, Prague, Weather by CustomWeather, © 2015

Note: Actual official high and low records may vary slightly from our data, if they occured in-between our weather recording intervals... More about our weather records

Advertising

Prague weather history for previous 24 hours

 ConditionsComfort  
Time TempWeatherWind HumidityBarometerVisibility
6:30 PM
Tue, Jun 2
75 °FSunny.18 mph44%30.04 "Hg10 mi
6:00 PM75 °FSunny.16 mph44%30.04 "Hg10 mi
5:30 PM75 °FSunny.18 mph44%30.04 "Hg10 mi
5:00 PM77 °FSunny.17 mph42%30.04 "Hg10 mi
4:30 PM75 °FSunny.18 mph44%30.04 "Hg10 mi
4:00 PM75 °FSunny.20 mph47%30.04 "Hg10 mi
3:30 PM75 °FSunny.20 mph47%30.04 "Hg10 mi
3:00 PM75 °FSunny.17 mph47%30.04 "Hg10 mi
2:30 PM75 °FSunny.17 mph47%30.07 "Hg10 mi
2:00 PM73 °FPassing clouds.17 mph47%30.07 "HgN/A
1:30 PM72 °FPassing clouds.17 mph53%30.07 "HgN/A
1:00 PM72 °FScattered clouds.20 mph50%30.07 "HgN/A
12:30 PM72 °FScattered clouds.22 mph50%30.07 "HgN/A
12:00 PM70 °FScattered clouds.20 mph53%30.07 "HgN/A
11:30 AM70 °FPartly sunny.21 mph57%30.07 "HgN/A
11:00 AM70 °FScattered clouds.23 mph57%30.07 "HgN/A
10:00 AM68 °FScattered clouds.17 mph69%30.07 "HgN/A
9:30 AM66 °FScattered clouds.14 mph68%30.07 "HgN/A
9:00 AM64 °FPassing clouds.10 mph78%30.07 "HgN/A
8:30 AM63 °FSunny.7 mph83%30.07 "Hg10 mi
8:00 AM61 °FSunny.5 mph83%30.07 "Hg10 mi
7:30 AM59 °FPassing clouds.3 mph88%30.04 "HgN/A
7:00 AM57 °FSunny.1 mph94%30.04 "Hg10 mi
6:30 AM54 °FSunny.1 mph100%30.04 "Hg10 mi
5:30 AM54 °FClear.3 mph94%30.04 "Hg6 mi
5:00 AM54 °FClear.8 mph94%30.04 "Hg5 mi
4:30 AM54 °FFog.6 mph94%30.04 "Hg3 mi
4:00 AM55 °FPassing clouds.8 mph94%30.07 "Hg1 mi
3:30 AM54 °FCool.8 mph94%30.07 "Hg1 mi
3:00 AM54 °FFog.2 mph94%30.07 "Hg4 mi
2:30 AM54 °FClear.No wind100%30.07 "Hg4 mi
2:00 AM55 °FPassing clouds.5 mph94%30.07 "Hg4 mi
1:30 AM55 °FPassing clouds.6 mph94%30.07 "Hg4 mi
1:00 AM55 °FClear.6 mph94%30.04 "Hg6 mi
12:30 AM54 °FPassing clouds.5 mph94%30.07 "HgN/A
12:00 AM54 °FPassing clouds.2 mph94%30.07 "HgN/A
11:30 PM
Mon, Jun 1
55 °FPassing clouds.1 mph94%30.04 "HgN/A
11:00 PM55 °FPartly cloudy.6 mph94%30.04 "HgN/A
10:30 PM57 °FPassing clouds.6 mph94%30.04 "HgN/A
10:00 PM57 °FPartly sunny.7 mph94%30.04 "HgN/A
9:30 PM59 °FPassing clouds.5 mph94%30.04 "HgN/A
9:00 PM59 °FPassing clouds.10 mph94%30.01 "HgN/A
8:30 PM61 °FSprinkles. Scattered clouds.10 mph94%30.04 "HgN/A
8:00 PM64 °FThunderstorms. Scattered clouds.17 mph68%30.01 "HgN/A
7:30 PM72 °FPassing clouds.9 mph50%29.98 "HgN/A
7:00 PM73 °FPassing clouds.9 mph50%29.98 "HgN/A
Weather by CustomWeather, © 2015

See weather overviewHow to use our weather pages